Погода в Борзе

Россия / Забайкальский край     50°23′15″N   116°31′24″E
темп.,
°C
ветер,
м/с
пор.,
м/с
влажн.,
%
обл.,
%
осадки,
мм/ч
давл.,
гПа
погр.,
м
9 мая, вс
вс900:00+6ссв115018 0.0 100712
03:00+4ссз00555 0.0 100710
06:00+3ссв115949 0.0 100810
09:00+8св224497 0.1 1008420
12:00+11зсз243343 0.1 10072178
15:00+13сз552594 0.1 10052746
18:00+14ссз352198 0.0 10052867
21:00+9юз115086 0.1 100736
10 мая, пн
пн1000:00+8юв135697 0.3 100888
03:00+6в226588 0.4 100818
06:00+6в116554 0.1 100910
09:00+9ююв114854 0.1 1008528
12:00+14ююз3436100 0.0 10061804
15:00+13з2439100 0.0 10051984
18:00+14св5340100 0.0 1003554
21:00+11ссв2262100 0.5 1006123
11 мая, вт
вт1100:00+9св4776100 0.3 1004258
03:00+7с3381100 0.3 100466
06:00+7ссв2585100 0.0 1003160
09:00+8св5776100 0.3 1002532
12:00+8св7876100 1.3 1001992
15:00+9ссв81164100 2.1 10001392
18:00+11ссв71449100 0.0 9991914
21:00+9ссз5954100 0.0 1001266
12 мая, ср
ср1200:00+8сз5958100 0.0 1002208
03:00+6сз51266100 0.0 1003265
06:00+5сз4966100 0.0 1005192
09:00+10сз610483 0.0 10051014
12:00+14сз810335 0.0 10042206
15:00+16сз81025100 0.0 10033146
18:00+16сз89206 0.0 10033033
21:00+12зсз473072 0.0 1005118
13 мая, чт
чт1300:00+9зсз374041 0.0 1006121
03:00+8з36455 0.0 1007104
06:00+7зюз225692 0.0 100724
09:00+11з4644100 0.0 1006696
12:00+12зсз81042100 0.0 10051768
15:00+10з61035100 0.2 10071965
18:00+11ссз8935100 0.0 10051909
21:00+7ссз6105090 0.0 1008411